| time (UTC) | temp F | wind direction | speed MPH | gust MPH | rain 1hr in | rain 24hr in | rain mn in | humidity % | barometer mb |
| 20260504050418 | 41 | 178 | 0.0 | 0.0 | 0.00 | 0.00 | 0.00 | 99 | 1008.0 |
| 20260504045918 | 41 | 90 | 0.0 | 0.0 | 0.00 | 0.00 | 0.00 | 99 | 1008.0 |
| 20260504045418 | 41 | 90 | 0.0 | 0.0 | 0.00 | 0.00 | 0.00 | 99 | 1007.2 |
| 20260504044918 | 41 | 90 | 0.0 | 0.0 | 0.00 | 0.00 | 0.00 | 99 | 1007.2 |
| 20260504044418 | 41 | 144 | 0.0 | 0.0 | 0.00 | 0.00 | 0.00 | 99 | 1008.0 |
| 20260504043918 | 41 | 171 | 0.0 | 0.0 | 0.00 | 0.00 | 0.00 | 99 | 1007.2 |
| 20260504043418 | 41 | 203 | 0.0 | 0.0 | 0.00 | 0.00 | 0.00 | 99 | 1008.0 |
| 20260504042918 | 41 | 293 | 0.0 | 0.0 | 0.00 | 0.00 | 0.00 | 99 | 1007.2 |
| 20260504042418 | 41 | 169 | 0.0 | 0.0 | 0.00 | 0.00 | 0.00 | 99 | 1008.0 |
| 20260504041918 | 41 | 78 | 0.0 | 0.0 | 0.00 | 0.00 | 0.00 | 99 | 1007.2 |
| 20260504041418 | 40 | 45 | 0.0 | 0.0 | 0.00 | 0.00 | 0.00 | 99 | 1008.0 |
| 20260504040918 | 40 | 45 | 0.0 | 0.0 | 0.00 | 0.00 | 0.00 | 99 | 1007.2 |
| 20260504040418 | 40 | 150 | 0.0 | 0.0 | 0.00 | 0.00 | 0.00 | 99 | 1008.0 |
| 20260504035918 | 40 | 180 | 0.0 | 0.0 | 0.00 | 0.00 | 0.00 | 99 | 1007.2 |
| 20260504035418 | 40 | 180 | 0.0 | 0.0 | 0.00 | 0.00 | 0.00 | 99 | 1008.0 |
| 20260504034918 | 39 | 202 | 0.0 | 0.0 | 0.00 | 0.00 | 0.00 | 99 | 1007.2 |
| 20260504034418 | 39 | 227 | 0.0 | 0.0 | 0.00 | 0.00 | 0.00 | 99 | 1008.0 |
| 20260504033918 | 39 | 247 | 0.0 | 0.0 | 0.00 | 0.00 | 0.00 | 99 | 1007.2 |
| 20260504033418 | 39 | 247 | 0.0 | 0.0 | 0.00 | 0.00 | 0.00 | 99 | 1008.0 |
| 20260504032918 | 38 | 102 | 0.0 | 0.0 | 0.00 | 0.00 | 0.00 | 99 | 1007.2 |
| 20260504032418 | 38 | 227 | 0.0 | 0.0 | 0.00 | 0.00 | 0.00 | 99 | 1008.0 |
| 20260504031918 | 38 | 262 | 0.0 | 0.0 | 0.00 | 0.00 | 0.00 | 99 | 1008.0 |
| 20260504031418 | 37 | 37 | 0.0 | 0.0 | 0.00 | 0.00 | 0.00 | 99 | 1007.2 |
| 20260504030918 | 37 | 77 | 0.0 | 0.0 | 0.00 | 0.00 | 0.00 | 99 | 1007.2 |
| 20260504030418 | 37 | 117 | 0.0 | 0.0 | 0.00 | 0.00 | 0.00 | 99 | 1008.0 |
| 20260504025918 | 37 | 135 | 0.0 | 0.0 | 0.00 | 0.00 | 0.00 | 99 | 1007.2 |
| 20260504025418 | 37 | 117 | 0.0 | 0.0 | 0.00 | 0.00 | 0.00 | 99 | 1007.2 |
| 20260504024918 | 37 | 115 | 0.0 | 0.0 | 0.00 | 0.00 | 0.00 | 99 | 1007.1 |
| 20260504024418 | 37 | 124 | 0.0 | 0.0 | 0.00 | 0.00 | 0.00 | 99 | 1007.1 |
| 20260504023918 | 37 | 180 | 0.0 | 0.0 | 0.00 | 0.00 | 0.00 | 99 | 1007.1 |
| 20260504023418 | 37 | 180 | 0.0 | 0.0 | 0.00 | 0.00 | 0.00 | 99 | 1007.0 |
| 20260504022918 | 38 | 197 | 0.0 | 0.0 | 0.00 | 0.00 | 0.00 | 99 | 1007.1 |
| 20260504022418 | 38 | 202 | 0.0 | 0.0 | 0.00 | 0.00 | 0.00 | 99 | 1007.2 |
| 20260504021918 | 39 | 189 | 0.0 | 0.0 | 0.00 | 0.00 | 0.00 | 99 | 1007.2 |
| 20260504021418 | 39 | 180 | 0.0 | 0.0 | 0.00 | 0.00 | 0.00 | 99 | 1007.2 |
| 20260504020918 | 40 | 189 | 0.0 | 0.0 | 0.00 | 0.00 | 0.00 | 99 | 1007.2 |
| 20260504020418 | 40 | 208 | 0.0 | 0.0 | 0.00 | 0.00 | 0.00 | 99 | 1007.2 |
| 20260504015918 | 41 | 47 | 0.0 | 0.0 | 0.00 | 0.00 | 0.00 | 99 | 1007.2 |
| 20260504015418 | 41 | 139 | 0.0 | 0.0 | 0.00 | 0.00 | 0.00 | 99 | 1008.0 |
| 20260504014918 | 41 | 147 | 0.0 | 0.0 | 0.00 | 0.00 | 0.00 | 99 | 1007.2 |
| 20260504014418 | 42 | 214 | 0.0 | 0.0 | 0.00 | 0.00 | 0.00 | 99 | 1008.0 |
| 20260504013918 | 42 | 225 | 0.0 | 0.0 | 0.00 | 0.00 | 0.00 | 99 | 1007.2 |
| 20260504013418 | 42 | 225 | 0.0 | 0.0 | 0.00 | 0.00 | 0.00 | 99 | 1007.1 |
| 20260504012918 | 42 | 225 | 0.0 | 0.0 | 0.00 | 0.00 | 0.00 | 99 | 1007.0 |
| 20260504012418 | 43 | 225 | 0.0 | 0.0 | 0.00 | 0.00 | 0.00 | 99 | 1007.0 |
| 20260504011918 | 43 | 225 | 0.0 | 0.0 | 0.00 | 0.00 | 0.00 | 99 | 1007.0 |
| 20260504011418 | 44 | 232 | 0.0 | 0.0 | 0.00 | 0.00 | 0.00 | 99 | 1007.0 |
| 20260504010918 | 44 | 195 | 0.0 | 0.0 | 0.00 | 0.00 | 0.00 | 99 | 1007.0 |
| 20260504010418 | 45 | 180 | 0.0 | 0.0 | 0.00 | 0.00 | 0.00 | 99 | 1007.0 |
| 20260504005918 | 46 | 180 | 0.0 | 0.0 | 0.00 | 0.00 | 0.00 | 99 | 1007.0 |
| 20260504005418 | 46 | 164 | 0.0 | 0.0 | 0.00 | 0.00 | 0.00 | 99 | 1007.0 |
| 20260504004918 | 46 | 177 | 0.0 | 0.0 | 0.00 | 0.00 | 0.00 | 99 | 1007.0 |
| 20260504004418 | 47 | 159 | 0.0 | 0.0 | 0.00 | 0.00 | 0.00 | 99 | 1007.0 |
| 20260504003918 | 48 | 159 | 0.0 | 0.0 | 0.00 | 0.00 | 0.00 | 99 | 1007.0 |
| 20260504003418 | 49 | 137 | 0.0 | 0.0 | 0.00 | 0.00 | 0.00 | 99 | 1007.0 |
| 20260504002918 | 49 | 355 | 0.0 | 0.0 | 0.00 | 0.00 | 0.00 | 99 | 1007.0 |
| 20260504002418 | 49 | 80 | 0.0 | 0.0 | 0.00 | 0.00 | 0.00 | 99 | 1007.0 |
| 20260504001918 | 50 | 102 | 0.0 | 0.0 | 0.00 | 0.00 | 0.00 | 99 | 1006.2 |
| 20260504001418 | 50 | 79 | 0.0 | 0.0 | 0.00 | 0.00 | 0.00 | 99 | 1007.0 |
| 20260504000918 | 51 | 47 | 0.0 | 1.0 | 0.00 | 0.00 | 0.00 | 99 | 1006.2 |
| 20260504000418 | 51 | 28 | 0.0 | 2.0 | 0.00 | 0.00 | 0.00 | 99 | 1007.0 |
| 20260503235918 | 52 | 355 | 0.0 | 2.0 | 0.00 | 0.00 | 0.00 | 99 | 1006.2 |
| 20260503235418 | 52 | 122 | 0.0 | 0.0 | 0.00 | 0.00 | 0.00 | 99 | 1007.0 |
| 20260503234918 | 53 | 82 | 0.0 | 0.0 | 0.00 | 0.00 | 0.00 | 99 | 1006.2 |
| 20260503234418 | 53 | 75 | 0.0 | 0.0 | 0.00 | 0.00 | 0.00 | 99 | 1007.0 |
| 20260503233918 | 53 | 54 | 0.0 | 0.0 | 0.00 | 0.00 | 0.00 | 99 | 1006.2 |
| 20260503233418 | 54 | 49 | 0.0 | 0.0 | 0.00 | 0.00 | 0.00 | 99 | 1007.0 |
| 20260503232918 | 54 | 53 | 0.0 | 0.0 | 0.00 | 0.00 | 0.00 | 99 | 1006.2 |
| 20260503232418 | 55 | 45 | 0.0 | 4.0 | 0.00 | 0.00 | 0.00 | 99 | 1007.0 |
| 20260503231918 | 55 | 47 | 0.0 | 4.0 | 0.00 | 0.00 | 0.00 | 99 | 1006.2 |
| 20260503231418 | 55 | 34 | 0.0 | 2.0 | 0.00 | 0.00 | 0.00 | 99 | 1007.0 |
| 20260503230918 | 55 | 36 | 0.0 | 4.0 | 0.00 | 0.00 | 0.00 | 99 | 1006.2 |
| 20260503230418 | 55 | 53 | 0.0 | 4.0 | 0.00 | 0.00 | 0.00 | 99 | 1006.2 |
| 20260503225918 | 55 | 5 | 0.0 | 5.0 | 0.00 | 0.00 | 0.00 | 99 | 1006.1 |
| 20260503225418 | 55 | 86 | 1.0 | 5.0 | 0.00 | 0.00 | 0.00 | 99 | 1006.1 |
| 20260503224918 | 55 | 39 | 0.0 | 4.0 | 0.00 | 0.00 | 0.00 | 99 | 1006.0 |
| 20260503224418 | 55 | 45 | 0.0 | 4.0 | 0.00 | 0.00 | 0.00 | 99 | 1006.0 |
| 20260503223918 | 55 | 74 | 1.0 | 4.0 | 0.00 | 0.00 | 0.00 | 99 | 1006.0 |
| 20260503223418 | 56 | 44 | 0.0 | 4.0 | 0.00 | 0.00 | 0.00 | 99 | 1006.0 |
| 20260503222918 | 56 | 55 | 1.0 | 4.0 | 0.00 | 0.00 | 0.00 | 99 | 1006.0 |
| 20260503222418 | 56 | 34 | 0.0 | 4.0 | 0.00 | 0.00 | 0.00 | 99 | 1006.0 |
| 20260503221918 | 56 | 45 | 0.0 | 4.0 | 0.00 | 0.00 | 0.00 | 99 | 1006.0 |
| 20260503221418 | 57 | 87 | 0.0 | 4.0 | 0.00 | 0.00 | 0.00 | 99 | 1006.0 |
| 20260503220918 | 59 | 42 | 0.0 | 8.0 | 0.00 | 0.00 | 0.00 | 99 | 1006.0 |
| 20260503220418 | 62 | 68 | 1.0 | 8.0 | 0.00 | 0.00 | 0.00 | 99 | 1006.0 |
| 20260503215918 | 64 | 76 | 0.0 | 3.0 | 0.00 | 0.00 | 0.00 | 99 | 1006.0 |
| 20260503215418 | 65 | 86 | 0.0 | 3.0 | 0.00 | 0.00 | 0.00 | 99 | 1006.0 |
| 20260503214918 | 65 | 45 | 0.0 | 8.0 | 0.00 | 0.00 | 0.00 | 99 | 1006.0 |
| 20260503214418 | 67 | 45 | 1.0 | 8.0 | 0.00 | 0.00 | 0.00 | 99 | 1006.0 |
| 20260503213918 | 69 | 46 | 0.0 | 5.0 | 0.00 | 0.00 | 0.00 | 99 | 1006.0 |
| 20260503213418 | 69 | 41 | 2.0 | 10.0 | 0.00 | 0.00 | 0.00 | 99 | 1006.0 |
| 20260503212918 | 69 | 7 | 3.0 | 10.0 | 0.00 | 0.00 | 0.00 | 99 | 1006.0 |
| 20260503212418 | 69 | 37 | 0.0 | 7.0 | 0.00 | 0.00 | 0.00 | 99 | 1006.0 |
| 20260503211918 | 70 | 53 | 1.0 | 7.0 | 0.00 | 0.00 | 0.00 | 99 | 1006.0 |
| 20260503211418 | 71 | 49 | 0.0 | 5.0 | 0.00 | 0.00 | 0.00 | 99 | 1006.0 |
| 20260503210918 | 71 | 50 | 0.0 | 5.0 | 0.00 | 0.00 | 0.00 | 99 | 1006.0 |
| 20260503210418 | 72 | 40 | 0.0 | 5.0 | 0.00 | 0.00 | 0.00 | 99 | 1006.0 |
| 20260503205918 | 72 | 47 | 0.0 | 3.0 | 0.00 | 0.00 | 0.00 | 99 | 1006.0 |
| 20260503205418 | 73 | 51 | 0.0 | 3.0 | 0.00 | 0.00 | 0.00 | 99 | 1006.0 |
| 20260503204918 | 72 | 43 | 0.0 | 1.0 | 0.00 | 0.00 | 0.00 | 99 | 1006.0 |
| 20260503204418 | 71 | 97 | 0.0 | 2.0 | 0.00 | 0.00 | 0.00 | 99 | 1006.0 |
| 20260503203918 | 71 | 70 | 0.0 | 5.0 | 0.00 | 0.00 | 0.00 | 99 | 1006.0 |
| 20260503203418 | 72 | 40 | 0.0 | 5.0 | 0.00 | 0.00 | 0.00 | 99 | 1006.0 |
| 20260503202918 | 72 | 43 | 0.0 | 0.0 | 0.00 | 0.00 | 0.00 | 99 | 1006.0 |
| 20260503202418 | 71 | 91 | 0.0 | 3.0 | 0.00 | 0.00 | 0.00 | 99 | 1006.0 |
| 20260503201918 | 71 | 44 | 0.0 | 8.0 | 0.00 | 0.00 | 0.00 | 99 | 1006.0 |
| 20260503201418 | 70 | 48 | 1.0 | 8.0 | 0.00 | 0.00 | 0.00 | 99 | 1006.0 |
| 20260503200918 | 69 | 45 | 0.0 | 6.0 | 0.00 | 0.00 | 0.00 | 99 | 1006.0 |
| 20260503200418 | 68 | 43 | 1.0 | 6.0 | 0.00 | 0.00 | 0.00 | 99 | 1006.0 |
| 20260503195918 | 69 | 82 | 0.0 | 1.0 | 0.00 | 0.00 | 0.00 | 99 | 1006.0 |
| 20260503195418 | 69 | 84 | 0.0 | 9.0 | 0.00 | 0.00 | 0.00 | 99 | 1006.0 |
| 20260503194918 | 69 | 72 | 0.0 | 9.0 | 0.00 | 0.00 | 0.00 | 99 | 1006.1 |
| 20260503194418 | 69 | 41 | 0.0 | 8.0 | 0.00 | 0.00 | 0.00 | 99 | 1006.2 |
| 20260503193917 | 70 | 3 | 0.0 | 8.0 | 0.00 | 0.00 | 0.00 | 99 | 1006.1 |
| 20260503193418 | 69 | 85 | 0.0 | 1.0 | 0.00 | 0.00 | 0.00 | 99 | 1006.2 |
| 20260503192918 | 67 | 80 | 0.0 | 1.0 | 0.00 | 0.00 | 0.00 | 99 | 1007.0 |
| 20260503192417 | 67 | 45 | 0.0 | 3.0 | 0.00 | 0.00 | 0.00 | 99 | 1006.2 |
| 20260503191418 | 71 | 129 | 1.0 | 6.0 | 0.00 | 0.00 | 0.00 | 99 | 1006.2 |
| 20260503190918 | 70 | 83 | 0.0 | 2.0 | 0.00 | 0.00 | 0.00 | 99 | 1006.2 |
| 20260503190417 | 69 | 38 | 0.0 | 6.0 | 0.00 | 0.00 | 0.00 | 99 | 1006.2 |
| 20260503185917 | 67 | 7 | 0.0 | 9.0 | 0.00 | 0.00 | 0.00 | 99 | 1007.0 |
| 20260503185417 | 64 | 42 | 0.0 | 9.0 | 0.00 | 0.00 | 0.00 | 99 | 1006.2 |
| 20260503184917 | 61 | 48 | 0.0 | 5.0 | 0.00 | 0.00 | 0.00 | 99 | 1007.0 |
| 20260503184417 | 61 | 92 | 0.0 | 5.0 | 0.00 | 0.00 | 0.00 | 99 | 1006.2 |
| 20260503183917 | 60 | 90 | 0.0 | 2.0 | 0.00 | 0.00 | 0.00 | 99 | 1007.0 |
| 20260503183418 | 58 | 45 | 0.0 | 1.0 | 0.00 | 0.00 | 0.00 | 99 | 1007.0 |
| 20260503182917 | 58 | 79 | 0.0 | 4.0 | 0.00 | 0.00 | 0.00 | 99 | 1007.0 |
| 20260503182417 | 60 | 48 | 0.0 | 5.0 | 0.00 | 0.00 | 0.00 | 99 | 1007.0 |
| 20260503181917 | 62 | 48 | 0.0 | 10.0 | 0.00 | 0.00 | 0.00 | 99 | 1007.0 |
| 20260503181417 | 63 | 74 | 1.0 | 10.0 | 0.00 | 0.00 | 0.00 | 99 | 1007.0 |
| 20260503180917 | 61 | 83 | 0.0 | 5.0 | 0.00 | 0.00 | 0.00 | 99 | 1007.0 |
| 20260503180417 | 57 | 5 | 0.0 | 7.0 | 0.00 | 0.00 | 0.00 | 99 | 1007.0 |
| 20260503175917 | 57 | 42 | 1.0 | 7.0 | 0.00 | 0.00 | 0.00 | 99 | 1007.0 |
| 20260503175417 | 57 | 47 | 0.0 | 5.0 | 0.00 | 0.00 | 0.00 | 99 | 1007.0 |
| 20260503174917 | 57 | 35 | 0.0 | 5.0 | 0.00 | 0.00 | 0.00 | 99 | 1007.0 |
| 20260503174417 | 58 | 83 | 0.0 | 4.0 | 0.00 | 0.00 | 0.00 | 99 | 1007.0 |
| 20260503173917 | 59 | 36 | 0.0 | 4.0 | 0.00 | 0.00 | 0.00 | 99 | 1007.0 |
| 20260503173418 | 57 | 35 | 0.0 | 4.0 | 0.00 | 0.00 | 0.00 | 99 | 1007.0 |
| 20260503172917 | 57 | 40 | 0.0 | 5.0 | 0.00 | 0.00 | 0.00 | 99 | 1007.0 |
| 20260503172417 | 57 | 45 | 0.0 | 5.0 | 0.00 | 0.00 | 0.00 | 99 | 1007.0 |
| 20260503171917 | 56 | 71 | 0.0 | 6.0 | 0.00 | 0.00 | 0.00 | 99 | 1007.0 |
| 20260503171417 | 55 | 43 | 1.0 | 6.0 | 0.00 | 0.00 | 0.00 | 99 | 1007.0 |
| 20260503170917 | 56 | 39 | 0.0 | 4.0 | 0.00 | 0.00 | 0.00 | 99 | 1007.0 |
| 20260503170417 | 57 | 309 | 0.0 | 4.0 | 0.00 | 0.00 | 0.00 | 99 | 1007.0 |
| 20260503150917 | 55 | 72 | 0.0 | 6.0 | 0.00 | 0.00 | 0.00 | 99 | 1007.1 |
| 20260503150417 | 57 | 45 | 0.0 | 4.0 | 0.00 | 0.00 | 0.00 | 99 | 1007.0 |
| 20260503131417 | 51 | 42 | 0.0 | 3.0 | 0.00 | 0.00 | 0.00 | 99 | 1008.0 |
| 20260503130417 | 50 | 46 | 0.0 | 10.0 | 0.00 | 0.00 | 0.00 | 99 | 1008.0 |
| 20260503110417 | 41 | 131 | 0.0 | 5.0 | 0.00 | 0.00 | 0.00 | 99 | 1007.1 |
| 20260503090417 | 37 | 88 | 0.0 | 0.0 | 0.00 | 0.00 | 0.00 | 99 | 1007.0 |
| 20260503081417 | 34 | 135 | 0.0 | 0.0 | 0.00 | 0.00 | 0.00 | 99 | 1008.0 |
| 20260503080917 | 34 | 91 | 0.0 | 0.0 | 0.00 | 0.00 | 0.00 | 99 | 1008.0 |
| 20260503080417 | 34 | 174 | 0.0 | 0.0 | 0.00 | 0.00 | 0.00 | 99 | 1008.0 |
| 20260503072917 | 35 | 72 | 0.0 | 0.0 | 0.00 | 0.00 | 0.00 | 99 | 1008.0 |
| 20260503072417 | 35 | 87 | 0.0 | 0.0 | 0.00 | 0.00 | 0.00 | 99 | 1008.0 |
| 20260503071917 | 35 | 136 | 0.0 | 0.0 | 0.00 | 0.00 | 0.00 | 99 | 1008.0 |
| 20260503071417 | 35 | 132 | 0.0 | 0.0 | 0.00 | 0.00 | 0.00 | 99 | 1008.0 |
| 20260503070917 | 35 | 93 | 0.0 | 3.0 | 0.00 | 0.00 | 0.00 | 99 | 1008.0 |
| 20260503070417 | 34 | 102 | 0.0 | 3.0 | 0.00 | 0.00 | 0.00 | 99 | 1008.0 |